This is the latest recevied weather packets stored in our database for station/object K0QED. If no packets are shown the sender has not sent any weather packets the latest 10 day(s).
| Time | Temp. | Humidity | Pressure | Rain* | Wind** | Luminosity | Snow |
|---|---|---|---|---|---|---|---|
| 1777934469 | 15.56° C | 37% | 1012.1 hPa | 0 mm | - | 127 W/m² | - |
| 1777934166 | 15.56° C | 37% | 1011.9 hPa | 0 mm | - | 209 W/m² | - |
| 1777933862 | 15.56° C | 36% | 1012.4 hPa | 0 mm | - | 273 W/m² | - |
| 1777933559 | 15° C | 38% | 1012.4 hPa | 0 mm | - | 244 W/m² | - |
| 1777933256 | 16.11° C | 33% | 1012 hPa | 0 mm | - | 154 W/m² | - |
| 1777932954 | 15.56° C | 33% | 1012 hPa | 0 mm | - | 154 W/m² | - |
| 1777932650 | 15.56° C | 32% | 1012.2 hPa | 0 mm | - | 188 W/m² | - |
| 1777932347 | 15.56° C | 34% | 1012.1 hPa | 0 mm | - | 210 W/m² | - |
| 1777932044 | 15° C | 32% | 1012 hPa | 0 mm | - | 198 W/m² | - |
| 1777931740 | 15° C | 38% | 1012.5 hPa | 0 mm | - | 171 W/m² | - |
| 1777931438 | 15.56° C | 33% | 1012 hPa | 0 mm | - | 152 W/m² | - |
| 1777931133 | 15.56° C | 31% | 1012.2 hPa | 0 mm | - | 104 W/m² | - |
| 1777930830 | 15.56° C | 30% | 1011.7 hPa | 0 mm | - | 74 W/m² | - |
| 1777930527 | 16.11° C | 29% | 1011.7 hPa | 0 mm | - | 57 W/m² | - |
| 1777930224 | 16.67° C | 28% | 1011.5 hPa | 0 mm | - | 57 W/m² | - |
| 1777929919 | 16.67° C | 27% | 1011.6 hPa | 0 mm | - | 61 W/m² | - |
| 1777929617 | 16.67° C | 26% | 1011.9 hPa | 0 mm | - | 59 W/m² | - |
| 1777929314 | 16.67° C | 26% | 1011.9 hPa | 0 mm | - | 67 W/m² | - |
| 1777929011 | 17.22° C | 26% | 1011.4 hPa | 0 mm | - | 110 W/m² | - |
| 1777928708 | 17.78° C | 25% | 1011.7 hPa | 0 mm | - | 149 W/m² | - |
| 1777928405 | 17.78° C | 24% | 1011.6 hPa | 0 mm | - | 188 W/m² | - |
| 1777928103 | 17.78° C | 24% | 1011.6 hPa | 0 mm | - | 557 W/m² | - |
| 1777927800 | 17.78° C | 24% | 1011.9 hPa | 0 mm | - | 284 W/m² | - |
| 1777927498 | 17.78° C | 24% | 1012 hPa | 0 mm | - | 345 W/m² | - |
| 1777927197 | 17.78° C | 26% | 1011.7 hPa | 0 mm | - | 343 W/m² | - |
* Rain latest hour (hover to see other rain measurements)
** Current wind speed in m/s (hover to see current wind gust speed)